Time,TemperatureF,DewpointF,PressureIn,WindDirection,WindDirectionDegrees,WindSpeedMPH,WindSpeedGustMPH,Humidity,HourlyPrecipIn,Conditions,Clouds,dailyrainin,SoftwareType,DateUTC
2013-05-22 00:02:00,47.0,22.0,30.01,NNE,26,0.0,1.0,37,0.00,,,0.00,,2013-05-22 08:02:00,
2013-05-22 00:11:00,47.0,22.0,30.01,NNE,26,0.0,1.0,37,0.00,,,0.00,,2013-05-22 08:11:00,
2013-05-22 00:22:00,45.0,24.0,30.01,NNE,26,0.0,1.0,43,0.00,,,0.00,,2013-05-22 08:22:00,
2013-05-22 00:31:00,43.0,23.0,30.01,NNE,26,0.0,1.0,45,0.00,,,0.00,,2013-05-22 08:31:00,
2013-05-22 00:41:00,43.0,23.0,30.01,NNE,26,0.0,1.0,45,0.00,,,0.00,,2013-05-22 08:41:00,
2013-05-22 00:51:00,42.0,23.0,30.01,NNE,26,0.0,1.0,46,0.00,,,0.00,,2013-05-22 08:51:00,
2013-05-22 01:01:00,41.0,22.0,30.01,NNE,26,0.0,2.0,47,0.00,,,0.00,,2013-05-22 09:01:00,
2013-05-22 01:11:00,41.0,22.0,30.01,NNE,26,0.0,2.0,47,0.00,,,0.00,,2013-05-22 09:11:00,
2013-05-22 01:21:00,40.0,23.0,30.01,NNE,26,0.0,1.0,51,0.00,,,0.00,,2013-05-22 09:21:00,
2013-05-22 01:32:00,39.0,23.0,30.01,NNE,26,0.0,1.0,53,0.00,,,0.00,,2013-05-22 09:32:00,
2013-05-22 01:42:00,39.0,23.0,30.01,NNE,26,0.0,1.0,53,0.00,,,0.00,,2013-05-22 09:42:00,
2013-05-22 01:53:00,38.0,23.0,30.01,NNE,26,0.0,1.0,55,0.00,,,0.00,,2013-05-22 09:53:00,
2013-05-22 02:02:00,38.0,23.0,30.01,NNE,26,0.0,2.0,55,0.00,,,0.00,,2013-05-22 10:02:00,
2013-05-22 02:12:00,38.0,23.0,30.01,NNE,26,0.0,2.0,55,0.00,,,0.00,,2013-05-22 10:12:00,
2013-05-22 02:22:00,37.0,23.0,30.01,NNE,26,0.0,1.0,57,0.00,,,0.00,,2013-05-22 10:22:00,
2013-05-22 02:32:00,37.0,24.0,30.00,NNE,26,0.0,1.0,59,0.00,,,0.00,,2013-05-22 10:32:00,
2013-05-22 02:42:00,37.0,24.0,30.00,NNE,26,0.0,1.0,59,0.00,,,0.00,,2013-05-22 10:42:00,
2013-05-22 02:52:00,36.0,24.0,30.00,NNE,26,0.0,2.0,61,0.00,,,0.00,,2013-05-22 10:52:00,
2013-05-22 03:02:00,36.0,23.0,30.00,NNE,26,0.0,2.0,60,0.00,,,0.00,,2013-05-22 11:02:00,
2013-05-22 03:11:00,36.0,23.0,30.00,NNE,26,0.0,2.0,60,0.00,,,0.00,,2013-05-22 11:11:00,
2013-05-22 03:21:00,35.0,23.0,30.00,NNE,26,0.0,1.0,61,0.00,,,0.00,,2013-05-22 11:21:00,
2013-05-22 03:32:00,35.0,23.0,30.00,NNE,26,0.0,1.0,62,0.00,,,0.00,,2013-05-22 11:32:00,
2013-05-22 03:41:00,35.0,23.0,30.00,NNE,26,0.0,1.0,62,0.00,,,0.00,,2013-05-22 11:41:00,
2013-05-22 03:52:00,35.0,24.0,30.00,NNE,26,0.0,1.0,64,0.00,,,0.00,,2013-05-22 11:52:00,
2013-05-22 04:02:00,34.0,23.0,30.00,NNE,26,0.0,1.0,64,0.00,,,0.00,,2013-05-22 12:02:00,
2013-05-22 04:11:00,34.0,23.0,30.00,NNE,26,0.0,1.0,64,0.00,,,0.00,,2013-05-22 12:11:00,
2013-05-22 04:22:00,34.0,23.0,30.01,NNE,26,0.0,1.0,65,0.00,,,0.00,,2013-05-22 12:22:00,
2013-05-22 04:32:00,33.0,23.0,30.01,NNE,26,0.0,1.0,67,0.00,,,0.00,,2013-05-22 12:32:00,
2013-05-22 04:42:00,33.0,23.0,30.01,NNE,26,0.0,1.0,67,0.00,,,0.00,,2013-05-22 12:42:00,
2013-05-22 04:52:00,32.0,23.0,30.01,NNE,26,0.0,1.0,70,0.00,,,0.00,,2013-05-22 12:52:00,
2013-05-22 05:01:00,31.0,23.0,30.00,NNE,26,0.0,1.0,72,0.00,,,0.00,,2013-05-22 13:01:00,
2013-05-22 05:11:00,31.0,23.0,30.00,NNE,26,0.0,1.0,72,0.00,,,0.00,,2013-05-22 13:11:00,
2013-05-22 05:21:00,31.0,24.0,30.00,NNE,26,0.0,1.0,74,0.00,,,0.00,,2013-05-22 13:21:00,
2013-05-22 05:31:00,30.0,23.0,30.00,NNE,26,0.0,1.0,74,0.00,,,0.00,,2013-05-22 13:31:00,
2013-05-22 05:41:00,30.0,23.0,30.00,NNE,26,0.0,1.0,74,0.00,,,0.00,,2013-05-22 13:41:00,
2013-05-22 05:52:00,31.0,24.0,30.00,NNE,26,0.0,1.0,75,0.00,,,0.00,,2013-05-22 13:52:00,
2013-05-22 06:02:00,31.0,24.0,30.00,NNE,26,0.0,1.0,75,0.00,,,0.00,,2013-05-22 14:02:00,
2013-05-22 06:11:00,31.0,24.0,30.00,NNE,26,0.0,1.0,75,0.00,,,0.00,,2013-05-22 14:11:00,
2013-05-22 06:21:00,32.0,25.0,30.00,NNE,26,0.0,1.0,74,0.00,,,0.00,,2013-05-22 14:21:00,
2013-05-22 06:32:00,32.0,25.0,29.99,NNE,26,0.0,0.0,74,0.00,,,0.00,,2013-05-22 14:32:00,
2013-05-22 06:41:00,32.0,25.0,29.99,NNE,26,0.0,0.0,74,0.00,,,0.00,,2013-05-22 14:41:00,
2013-05-22 06:52:00,34.0,26.0,29.99,NNE,26,0.0,0.0,73,0.00,,,0.00,,2013-05-22 14:52:00,
2013-05-22 07:01:00,36.0,27.0,29.99,NNE,26,0.0,1.0,69,0.00,,,0.00,,2013-05-22 15:01:00,
2013-05-22 07:11:00,36.0,27.0,29.99,NNE,26,0.0,1.0,69,0.00,,,0.00,,2013-05-22 15:11:00,
2013-05-22 07:21:00,38.0,28.0,29.99,NNE,26,0.0,0.0,66,0.00,,,0.00,,2013-05-22 15:21:00,
2013-05-22 07:32:00,40.0,28.0,29.98,NNE,26,0.0,0.0,63,0.00,,,0.00,,2013-05-22 15:32:00,
2013-05-22 07:42:00,40.0,28.0,29.98,NNE,26,0.0,0.0,63,0.00,,,0.00,,2013-05-22 15:42:00,
2013-05-22 07:53:00,42.0,30.0,29.98,NNE,26,0.0,1.0,61,0.00,,,0.00,,2013-05-22 15:53:00,
2013-05-22 08:02:00,43.0,29.0,29.98,NNE,26,0.0,0.0,57,0.00,,,0.00,,2013-05-22 16:02:00,
2013-05-22 08:12:00,43.0,29.0,29.98,NNE,26,0.0,0.0,57,0.00,,,0.00,,2013-05-22 16:12:00,
2013-05-22 08:23:00,47.0,29.0,29.98,NNE,26,0.0,1.0,50,0.00,,,0.00,,2013-05-22 16:23:00,
2013-05-22 08:32:00,49.0,27.0,29.98,NNE,26,0.0,3.0,42,0.00,,,0.00,,2013-05-22 16:32:00,
2013-05-22 08:42:00,49.0,27.0,29.98,NNE,26,0.0,3.0,42,0.00,,,0.00,,2013-05-22 16:42:00,
2013-05-22 08:52:00,50.0,26.0,29.97,NE,53,1.0,4.0,39,0.00,,,0.00,,2013-05-22 16:52:00,
2013-05-22 09:02:00,51.0,26.0,29.97,East,92,1.0,3.0,38,0.00,,,0.00,,2013-05-22 17:02:00,
2013-05-22 09:11:00,51.0,26.0,29.97,East,92,1.0,3.0,38,0.00,,,0.00,,2013-05-22 17:11:00,
2013-05-22 09:22:00,52.0,26.0,29.97,East,86,0.0,3.0,36,0.00,,,0.00,,2013-05-22 17:22:00,
2013-05-22 09:32:00,53.0,25.0,29.97,East,90,2.0,5.0,34,0.00,,,0.00,,2013-05-22 17:32:00,
2013-05-22 09:42:00,53.0,25.0,29.97,East,90,2.0,5.0,34,0.00,,,0.00,,2013-05-22 17:42:00,
2013-05-22 09:53:00,54.0,26.0,29.96,NNE,20,1.0,3.0,34,0.00,,,0.00,,2013-05-22 17:53:00,
2013-05-22 10:02:00,54.0,25.0,29.96,NE,40,1.0,4.0,32,0.00,,,0.00,,2013-05-22 18:02:00,
2013-05-22 10:14:00,54.0,25.0,29.96,NE,40,1.0,4.0,32,0.00,,,0.00,,2013-05-22 18:14:00,
2013-05-22 10:22:00,55.0,26.0,29.96,East,99,1.0,5.0,33,0.00,,,0.00,,2013-05-22 18:22:00,
2013-05-22 10:33:00,56.0,25.0,29.96,ENE,76,0.0,3.0,30,0.00,,,0.00,,2013-05-22 18:33:00,
2013-05-22 10:41:00,56.0,25.0,29.96,ENE,76,0.0,3.0,30,0.00,,,0.00,,2013-05-22 18:41:00,
2013-05-22 10:52:00,56.0,23.0,29.95,ENE,74,1.0,7.0,27,0.00,,,0.00,,2013-05-22 18:52:00,
2013-05-22 11:02:00,57.0,22.0,29.94,North,9,1.0,7.0,26,0.00,,,0.00,,2013-05-22 19:02:00,
2013-05-22 11:11:00,57.0,22.0,29.94,North,9,1.0,7.0,26,0.00,,,0.00,,2013-05-22 19:11:00,
2013-05-22 11:21:00,58.0,23.0,29.94,ENE,76,2.0,4.0,26,0.00,,,0.00,,2013-05-22 19:21:00,
2013-05-22 11:31:00,58.0,24.0,29.93,NE,42,2.0,4.0,27,0.00,,,0.00,,2013-05-22 19:31:00,
2013-05-22 11:41:00,58.0,24.0,29.93,NE,42,2.0,4.0,27,0.00,,,0.00,,2013-05-22 19:41:00,
2013-05-22 11:52:00,59.0,26.0,29.93,ESE,107,5.0,11.0,28,0.00,,,0.00,,2013-05-22 19:52:00,
2013-05-22 12:01:00,59.0,24.0,29.93,ESE,106,4.0,10.0,26,0.00,,,0.00,,2013-05-22 20:01:00,
2013-05-22 12:11:00,59.0,24.0,29.93,ESE,106,4.0,10.0,26,0.00,,,0.00,,2013-05-22 20:11:00,
2013-05-22 12:21:00,60.0,27.0,29.92,ESE,105,4.0,12.0,28,0.00,,,0.00,,2013-05-22 20:21:00,
2013-05-22 12:32:00,60.0,25.0,29.91,ESE,111,3.0,9.0,26,0.00,,,0.00,,2013-05-22 20:32:00,
2013-05-22 12:41:00,60.0,25.0,29.91,ESE,111,3.0,9.0,26,0.00,,,0.00,,2013-05-22 20:41:00,
2013-05-22 12:52:00,61.0,25.0,29.91,SE,146,1.0,5.0,25,0.00,,,0.00,,2013-05-22 20:52:00,
2013-05-22 13:01:00,61.0,28.0,29.91,SE,146,4.0,8.0,28,0.00,,,0.00,,2013-05-22 21:01:00,
2013-05-22 13:11:00,61.0,28.0,29.91,SE,146,4.0,8.0,28,0.00,,,0.00,,2013-05-22 21:11:00,
2013-05-22 13:21:00,61.0,25.0,29.90,ESE,110,3.0,9.0,25,0.00,,,0.00,,2013-05-22 21:21:00,
2013-05-22 13:32:00,61.0,29.0,29.89,East,80,1.0,9.0,29,0.00,,,0.00,,2013-05-22 21:32:00,
2013-05-22 13:42:00,61.0,29.0,29.89,East,80,1.0,9.0,29,0.00,,,0.00,,2013-05-22 21:42:00,
2013-05-22 13:53:00,62.0,26.0,29.89,East,95,3.0,9.0,25,0.00,,,0.00,,2013-05-22 21:53:00,
2013-05-22 14:02:00,62.0,25.0,29.88,ESE,111,3.0,11.0,24,0.00,,,0.00,,2013-05-22 22:02:00,
2013-05-22 14:12:00,62.0,25.0,29.88,ESE,111,3.0,11.0,24,0.00,,,0.00,,2013-05-22 22:12:00,
2013-05-22 14:22:00,63.0,28.0,29.88,SE,126,1.0,6.0,26,0.00,,,0.00,,2013-05-22 22:22:00,
2013-05-22 14:33:00,63.0,27.0,29.88,West,276,2.0,5.0,25,0.00,,,0.00,,2013-05-22 22:33:00,
2013-05-22 14:42:00,63.0,27.0,29.88,West,276,2.0,5.0,25,0.00,,,0.00,,2013-05-22 22:42:00,
2013-05-22 14:52:00,63.0,26.0,29.87,ENE,71,4.0,10.0,24,0.00,,,0.00,,2013-05-22 22:52:00,
2013-05-22 15:02:00,63.0,27.0,29.87,East,88,1.0,12.0,25,0.00,,,0.00,,2013-05-22 23:02:00,
2013-05-22 15:12:00,63.0,27.0,29.87,East,88,1.0,12.0,25,0.00,,,0.00,,2013-05-22 23:12:00,
2013-05-22 15:21:00,62.0,25.0,29.86,East,98,7.0,13.0,24,0.00,,,0.00,,2013-05-22 23:21:00,
2013-05-22 15:32:00,63.0,27.0,29.86,ESE,121,5.0,14.0,25,0.00,,,0.00,,2013-05-22 23:32:00,
2013-05-22 15:42:00,63.0,27.0,29.86,ESE,121,5.0,14.0,25,0.00,,,0.00,,2013-05-22 23:42:00,
2013-05-22 15:52:00,63.0,26.0,29.86,SE,146,2.0,10.0,24,0.00,,,0.00,,2013-05-22 23:52:00,
2013-05-22 16:01:00,63.0,26.0,29.85,ENE,69,3.0,14.0,24,0.00,,,0.00,,2013-05-23 00:01:00,
2013-05-22 16:11:00,63.0,26.0,29.85,ENE,69,3.0,14.0,24,0.00,,,0.00,,2013-05-23 00:11:00,
2013-05-22 16:21:00,64.0,26.0,29.85,NE,44,3.0,8.0,24,0.00,,,0.00,,2013-05-23 00:21:00,
2013-05-22 16:31:00,64.0,25.0,29.85,East,84,3.0,7.0,23,0.00,,,0.00,,2013-05-23 00:31:00,
2013-05-22 16:41:00,64.0,25.0,29.85,East,84,3.0,7.0,23,0.00,,,0.00,,2013-05-23 00:41:00,
2013-05-22 16:52:00,63.0,25.0,29.84,NE,34,0.0,6.0,23,0.00,,,0.00,,2013-05-23 00:52:00,
2013-05-22 17:01:00,64.0,25.0,29.84,East,88,2.0,8.0,23,0.00,,,0.00,,2013-05-23 01:01:00,
2013-05-22 17:11:00,64.0,25.0,29.84,East,88,2.0,8.0,23,0.00,,,0.00,,2013-05-23 01:11:00,
2013-05-22 17:21:00,64.0,28.0,29.83,SSE,163,1.0,6.0,26,0.00,,,0.00,,2013-05-23 01:21:00,
2013-05-22 17:32:00,63.0,26.0,29.83,ENE,69,1.0,6.0,24,0.00,,,0.00,,2013-05-23 01:32:00,
2013-05-22 17:41:00,63.0,26.0,29.83,SE,134,0.0,8.0,24,0.00,,,0.00,,2013-05-23 01:41:00,
2013-05-22 17:52:00,63.0,26.0,29.83,SE,134,0.0,8.0,24,0.00,,,0.00,,2013-05-23 01:52:00,
2013-05-22 18:01:00,64.0,25.0,29.83,East,86,0.0,2.0,23,0.00,,,0.00,,2013-05-23 02:01:00,
2013-05-22 18:11:00,64.0,25.0,29.83,East,86,0.0,2.0,23,0.00,,,0.00,,2013-05-23 02:11:00,
2013-05-22 18:21:00,64.0,24.0,29.83,East,92,3.0,9.0,22,0.00,,,0.00,,2013-05-23 02:21:00,
2013-05-22 18:31:00,64.0,24.0,29.83,ESE,112,3.0,10.0,22,0.00,,,0.00,,2013-05-23 02:31:00,
2013-05-22 18:42:00,64.0,24.0,29.83,ESE,112,3.0,10.0,22,0.00,,,0.00,,2013-05-23 02:42:00,
2013-05-22 18:51:00,64.0,24.0,29.83,ESE,112,3.0,10.0,22,0.00,,,0.00,,2013-05-23 02:51:00,
2013-05-22 19:01:00,62.0,28.0,29.83,South,190,1.0,6.0,27,0.00,,,0.00,,2013-05-23 03:01:00,
2013-05-22 19:11:00,62.0,28.0,29.83,South,190,1.0,6.0,27,0.00,,,0.00,,2013-05-23 03:11:00,
2013-05-22 19:21:00,61.0,28.0,29.83,SSW,193,2.0,8.0,28,0.00,,,0.00,,2013-05-23 03:21:00,
2013-05-22 19:33:00,61.0,28.0,29.83,South,182,2.0,10.0,28,0.00,,,0.00,,2013-05-23 03:33:00,
2013-05-22 19:43:00,61.0,28.0,29.83,South,182,2.0,10.0,28,0.00,,,0.00,,2013-05-23 03:43:00,
2013-05-22 19:53:00,60.0,28.0,29.83,SW,218,0.0,4.0,30,0.00,,,0.00,,2013-05-23 03:53:00,
2013-05-22 20:02:00,59.0,28.0,29.83,SSW,195,1.0,6.0,31,0.00,,,0.00,,2013-05-23 04:02:00,
2013-05-22 20:12:00,59.0,28.0,29.83,SSW,195,1.0,6.0,31,0.00,,,0.00,,2013-05-23 04:12:00,
2013-05-22 20:22:00,58.0,28.0,29.83,NE,34,0.0,4.0,31,0.00,,,0.00,,2013-05-23 04:22:00,
2013-05-22 20:33:00,58.0,28.0,29.83,NE,34,0.0,4.0,31,0.00,,,0.00,,2013-05-23 04:33:00,
2013-05-22 20:42:00,58.0,28.0,29.83,NE,34,0.0,4.0,31,0.00,,,0.00,,2013-05-23 04:42:00,
2013-05-22 20:52:00,58.0,28.0,29.83,NE,34,0.0,4.0,31,0.00,,,0.00,,2013-05-23 04:52:00,
2013-05-22 21:02:00,58.0,28.0,29.83,NE,34,0.0,4.0,31,0.00,,,0.00,,2013-05-23 05:02:00,
2013-05-22 21:43:00,56.0,29.0,29.84,SSW,209,0.0,2.0,35,0.00,,,0.00,,2013-05-23 05:43:00,
2013-05-22 21:52:00,56.0,29.0,29.84,SSW,209,0.0,2.0,35,0.00,,,0.00,,2013-05-23 05:52:00,
2013-05-22 22:02:00,54.0,28.0,29.84,ENE,75,0.0,0.0,37,0.00,,,0.00,,2013-05-23 06:02:00,
2013-05-22 22:12:00,54.0,28.0,29.84,ENE,75,0.0,0.0,37,0.00,,,0.00,,2013-05-23 06:12:00,
2013-05-22 22:21:00,54.0,28.0,29.84,ENE,75,0.0,0.0,37,0.00,,,0.00,,2013-05-23 06:21:00,
2013-05-22 22:31:00,53.0,27.0,29.85,ENE,75,0.0,1.0,37,0.00,,,0.00,,2013-05-23 06:31:00,
2013-05-22 22:41:00,53.0,27.0,29.85,ENE,75,0.0,1.0,37,0.00,,,0.00,,2013-05-23 06:41:00,
2013-05-22 22:52:00,52.0,28.0,29.85,ENE,75,0.0,0.0,39,0.00,,,0.00,,2013-05-23 06:52:00,
2013-05-22 23:02:00,52.0,28.0,29.85,ENE,75,0.0,1.0,39,0.00,,,0.00,,2013-05-23 07:02:00,
2013-05-22 23:11:00,52.0,28.0,29.85,ENE,75,0.0,1.0,39,0.00,,,0.00,,2013-05-23 07:11:00,
2013-05-22 23:21:00,51.0,28.0,29.86,ENE,75,0.0,1.0,40,0.00,,,0.00,,2013-05-23 07:21:00,
2013-05-22 23:31:00,50.0,28.0,29.86,ENE,75,0.0,0.0,42,0.00,,,0.00,,2013-05-23 07:31:00,
2013-05-22 23:42:00,50.0,28.0,29.86,ENE,75,0.0,0.0,42,0.00,,,0.00,,2013-05-23 07:42:00,
2013-05-22 23:59:00,49.0,27.0,29.87,ENE,75,0.0,0.0,43,0.00,,,0.00,,2013-05-23 07:59:00,